,,Stat6,,Stat2,,Stat8,,Stat9,,Stat10,,Wind1,,Wind1,
time,status,PA1M_AVG,status,PR1M_SUM,status,RH1M_AVG,status,SR1M_AVG,status,TA1M_AVG,status,W1dAve1m,status,W1sAve1m,
2008-04-18, 00:00:00,VALID,915.536,VALID,0,VALID,100,VALID,0.0339617,VALID,20.0535,VALID,8,VALID,0,
2008-04-18, 00:01:00,VALID,915.508,VALID,0,VALID,100,VALID,0.0169808,VALID,20.0467,VALID,2,VALID,0,
2008-04-18, 00:02:01,VALID,915.493,VALID,0,VALID,100,VALID,0.0339617,VALID,20.0502,VALID,2,VALID,0,
2008-04-18, 00:03:00,VALID,915.479,VALID,0,VALID,100,VALID,0.0169808,VALID,20.0605,VALID,2,VALID,0,
2008-04-18, 00:04:00,VALID,915.447,VALID,0,VALID,100,VALID,0,VALID,20.0405,VALID,2,VALID,0,
2008-04-18, 00:05:00,VALID,915.434,VALID,0,VALID,100,VALID,0.0169808,VALID,20.0338,VALID,356,VALID,0,
2008-04-18, 00:06:00,VALID,915.416,VALID,0,VALID,100,VALID,0.0169808,VALID,20.0275,VALID,13,VALID,0,
2008-04-18, 00:07:00,VALID,915.402,VALID,0,VALID,100,VALID,0.0169808,VALID,20.0465,VALID,14,VALID,0,
2008-04-18, 00:08:00,VALID,915.364,VALID,0,VALID,100,VALID,0.0169808,VALID,20.0335,VALID,20,VALID,0,
2008-04-18, 00:09:01,VALID,915.347,VALID,0,VALID,100,VALID,0.0169808,VALID,20.024,VALID,20,VALID,0,
2008-04-18, 00:10:00,VALID,915.327,VALID,0,VALID,100,VALID,0.0339617,VALID,20.0076,VALID,353,VALID,0,
2008-04-18, 00:11:01,VALID,915.297,VALID,0,VALID,100,VALID,0,VALID,19.9946,VALID,3,VALID,0,
2008-04-18, 00:12:00,VALID,915.284,VALID,0,VALID,100,VALID,0.0169808,VALID,19.9818,VALID,13,VALID,0,
2008-04-18, 00:13:00,VALID,915.269,VALID,0,VALID,100,VALID,0.0169808,VALID,19.9684,VALID,14,VALID,0,
2008-04-18, 00:14:00,VALID,915.26,VALID,0,VALID,100,VALID,-0.0169808,VALID,19.9659,VALID,14,VALID,0,
2008-04-18, 00:15:01,VALID,915.244,VALID,0,VALID,100,VALID,0,VALID,19.9499,VALID,14,VALID,0,
2008-04-18, 00:16:00,VALID,915.221,VALID,0,VALID,100,VALID,0,VALID,19.9429,VALID,14,VALID,0,
2008-04-18, 00:17:00,VALID,915.199,VALID,0,VALID,100,VALID,0.0169808,VALID,19.9559,VALID,14,VALID,0,
2008-04-18, 00:18:00,VALID,915.187,VALID,0,VALID,100,VALID,0.0169808,VALID,19.9494,VALID,14,VALID,0,
2008-04-18, 00:19:00,VALID,915.179,VALID,0,VALID,100,VALID,0.0169808,VALID,19.9299,VALID,14,VALID,0,
2008-04-18, 00:20:01,VALID,915.16,VALID,0,VALID,100,VALID,0.0169808,VALID,19.917,VALID,24,VALID,0,
2008-04-18, 00:21:00,VALID,915.151,VALID,0,VALID,100,VALID,0.0169808,VALID,19.8967,VALID,25,VALID,0,
2008-04-18, 00:22:00,VALID,915.141,VALID,0,VALID,100,VALID,0.0339617,VALID,19.8808,VALID,25,VALID,0,
2008-04-18, 00:23:00,VALID,915.14,VALID,0,VALID,100,VALID,0.0339617,VALID,19.8578,VALID,25,VALID,0,
2008-04-18, 00:24:00,VALID,915.119,VALID,0,VALID,100,VALID,0.0339617,VALID,19.8483,VALID,25,VALID,0,
2008-04-18, 00:25:01,VALID,915.113,VALID,0,VALID,100,VALID,0.0169808,VALID,19.8291,VALID,19,VALID,0,
2008-04-18, 00:26:00,VALID,915.097,VALID,0,VALID,100,VALID,0.0169808,VALID,19.8159,VALID,19,VALID,0,
2008-04-18, 00:27:00,VALID,915.096,VALID,0,VALID,100,VALID,0.0169808,VALID,19.7867,VALID,19,VALID,0,
2008-04-18, 00:28:00,VALID,915.085,VALID,0,VALID,100,VALID,0.0509425,VALID,19.7739,VALID,19,VALID,0,
2008-04-18, 00:29:00,VALID,915.072,VALID,0,VALID,100,VALID,0.0679233,VALID,19.7607,VALID,19,VALID,0,
2008-04-18, 00:30:00,VALID,915.069,VALID,0,VALID,100,VALID,0.0169808,VALID,19.7442,VALID,19,VALID,0,
2008-04-18, 00:31:00,VALID,915.07,VALID,0,VALID,100,VALID,0.0339617,VALID,19.7477,VALID,19,VALID,0,
2008-04-18, 00:32:01,VALID,915.076,VALID,0,VALID,100,VALID,0.0679233,VALID,19.738,VALID,19,VALID,0,
2008-04-18, 00:33:00,VALID,915.072,VALID,0,VALID,100,VALID,0.0169808,VALID,19.7318,VALID,19,VALID,0,
2008-04-18, 00:34:01,VALID,915.084,VALID,0,VALID,100,VALID,0.0339617,VALID,19.7285,VALID,19,VALID,0,
2008-04-18, 00:35:00,VALID,915.073,VALID,0,VALID,100,VALID,0,VALID,19.7118,VALID,19,VALID,0,
2008-04-18, 00:36:00,VALID,915.082,VALID,0,VALID,100,VALID,0.0339617,VALID,19.7123,VALID,19,VALID,0,
2008-04-18, 00:37:00,VALID,915.072,VALID,0,VALID,100,VALID,0.0169808,VALID,19.6828,VALID,19,VALID,0,
2008-04-18, 00:38:00,VALID,915.08,VALID,0,VALID,100,VALID,0.0339617,VALID,19.6826,VALID,19,VALID,0,
2008-04-18, 00:39:00,VALID,915.081,VALID,0,VALID,100,VALID,0.0169808,VALID,19.6788,VALID,19,VALID,0,
2008-04-18, 00:40:00,VALID,915.092,VALID,0,VALID,100,VALID,0.0679233,VALID,19.6823,VALID,19,VALID,0,
2008-04-18, 00:41:01,VALID,915.09,VALID,0,VALID,100,VALID,0.0169808,VALID,19.6796,VALID,19,VALID,0,
2008-04-18, 00:42:01,VALID,915.087,VALID,0,VALID,100,VALID,0.0339617,VALID,19.6858,VALID,19,VALID,0,
2008-04-18, 00:43:01,VALID,915.077,VALID,0,VALID,100,VALID,0.0679233,VALID,19.7023,VALID,19,VALID,0,
2008-04-18, 00:44:01,VALID,915.069,VALID,0,VALID,100,VALID,0.0509425,VALID,19.705,VALID,19,VALID,0,
2008-04-18, 00:45:00,VALID,915.056,VALID,0,VALID,100,VALID,0.0509425,VALID,19.7313,VALID,19,VALID,0,
2008-04-18, 00:46:01,VALID,915.027,VALID,0,VALID,100,VALID,0.0679233,VALID,19.7542,VALID,19,VALID,0,
2008-04-18, 00:47:01,VALID,915.032,VALID,0,VALID,100,VALID,0.0339617,VALID,19.7575,VALID,19,VALID,0,
2008-04-18, 00:48:01,VALID,915.017,VALID,0,VALID,100,VALID,0.0339617,VALID,19.7607,VALID,19,VALID,0,
2008-04-18, 00:49:01,VALID,914.989,VALID,0,VALID,100,VALID,0.0509425,VALID,19.7772,VALID,19,VALID,0,
2008-04-18, 00:50:01,VALID,914.989,VALID,0,VALID,100,VALID,-0.0169808,VALID,19.7714,VALID,19,VALID,0,
2008-04-18, 00:51:01,VALID,914.981,VALID,0,VALID,100,VALID,-0.0509425,VALID,19.7682,VALID,19,VALID,0,
2008-04-18, 00:52:01,VALID,914.974,VALID,0,VALID,100,VALID,-0.0509425,VALID,19.7684,VALID,19,VALID,0,
2008-04-18, 00:53:01,VALID,914.966,VALID,0,VALID,100,VALID,-0.0509425,VALID,19.7719,VALID,19,VALID,0,
2008-04-18, 00:54:01,VALID,914.96,VALID,0,VALID,100,VALID,-0.0339617,VALID,19.7682,VALID,19,VALID,0,
2008-04-18, 00:55:01,VALID,914.968,VALID,0,VALID,100,VALID,-0.0169808,VALID,19.7687,VALID,19,VALID,0,
2008-04-18, 00:56:01,VALID,914.964,VALID,0,VALID,100,VALID,-0.0339617,VALID,19.7622,VALID,19,VALID,0,
2008-04-18, 00:57:00,VALID,914.963,VALID,0,VALID,100,VALID,0,VALID,19.7387,VALID,19,VALID,0,
2008-04-18, 00:58:00,VALID,914.97,VALID,0,VALID,100,VALID,-0.0339617,VALID,19.7425,VALID,19,VALID,0,
2008-04-18, 00:59:00,VALID,914.961,VALID,0,VALID,100,VALID,-0.0339617,VALID,19.7422,VALID,19,VALID,0,
2008-04-18, 01:00:00,VALID,914.946,VALID,0,VALID,100,VALID,0,VALID,19.742,VALID,19,VALID,0,
2008-04-18, 01:01:00,VALID,914.922,VALID,0,VALID,100,VALID,-0.0509425,VALID,19.7133,VALID,19,VALID,0,
2008-04-18, 01:02:00,VALID,914.923,VALID,0,VALID,100,VALID,-0.0169808,VALID,19.6833,VALID,19,VALID,0,
2008-04-18, 01:03:00,VALID,914.904,VALID,0,VALID,100,VALID,-0.0339617,VALID,19.6746,VALID,19,VALID,0,
2008-04-18, 01:04:00,VALID,914.891,VALID,0,VALID,100,VALID,-0.0169808,VALID,19.6706,VALID,19,VALID,0,
2008-04-18, 01:05:00,VALID,914.877,VALID,0,VALID,100,VALID,0.0509425,VALID,19.6831,VALID,19,VALID,0,
2008-04-18, 01:06:00,VALID,914.855,VALID,0,VALID,100,VALID,0.101885,VALID,19.6397,VALID,19,VALID,0,
2008-04-18, 01:07:00,VALID,914.834,VALID,0,VALID,100,VALID,0.0169808,VALID,19.5945,VALID,19,VALID,0,
2008-04-18, 01:08:00,VALID,914.815,VALID,0,VALID,100,VALID,0.0169808,VALID,19.5695,VALID,19,VALID,0,
2008-04-18, 01:09:00,VALID,914.817,VALID,0,VALID,100,VALID,0,VALID,19.5531,VALID,19,VALID,0,
2008-04-18, 01:10:00,VALID,914.823,VALID,0,VALID,100,VALID,0,VALID,19.5368,VALID,19,VALID,0,
2008-04-18, 01:11:00,VALID,914.821,VALID,0,VALID,100,VALID,0.0169808,VALID,19.4912,VALID,18,VALID,0,
2008-04-18, 01:12:00,VALID,914.83,VALID,0,VALID,100,VALID,0,VALID,19.4787,VALID,17,VALID,0,
2008-04-18, 01:13:00,VALID,914.828,VALID,0,VALID,100,VALID,0.0509425,VALID,19.4587,VALID,17,VALID,0,
2008-04-18, 01:14:00,VALID,914.831,VALID,0,VALID,100,VALID,0.0679233,VALID,19.4265,VALID,17,VALID,0,
2008-04-18, 01:15:00,VALID,914.827,VALID,0,VALID,100,VALID,0.0679233,VALID,19.4103,VALID,18,VALID,0,
2008-04-18, 01:16:00,VALID,914.839,VALID,0,VALID,100,VALID,0.0169808,VALID,19.4133,VALID,18,VALID,0,
2008-04-18, 01:17:00,VALID,914.814,VALID,0,VALID,100,VALID,0.0339617,VALID,19.4298,VALID,18,VALID,0,
2008-04-18, 01:18:00,VALID,914.804,VALID,0,VALID,100,VALID,0,VALID,19.4527,VALID,18,VALID,0,
2008-04-18, 01:19:00,VALID,914.779,VALID,0,VALID,100,VALID,0.0339617,VALID,19.4515,VALID,18,VALID,0,
2008-04-18, 01:20:00,VALID,914.761,VALID,0,VALID,100,VALID,0,VALID,19.4595,VALID,18,VALID,0,
2008-04-18, 01:21:00,VALID,914.752,VALID,0,VALID,100,VALID,-0.0509425,VALID,19.434,VALID,18,VALID,0,
2008-04-18, 01:22:00,VALID,914.72,VALID,0,VALID,100,VALID,-0.0169808,VALID,19.4178,VALID,18,VALID,0,
2008-04-18, 01:23:00,VALID,914.707,VALID,0,VALID,100,VALID,-0.0339617,VALID,19.4145,VALID,18,VALID,0,
2008-04-18, 01:24:00,VALID,914.688,VALID,0,VALID,100,VALID,0,VALID,19.414,VALID,23,VALID,0,
2008-04-18, 01:25:00,VALID,914.66,VALID,0,VALID,100,VALID,-0.0509425,VALID,19.4023,VALID,24,VALID,0,
2008-04-18, 01:26:00,VALID,914.654,VALID,0,VALID,100,VALID,-0.0339617,VALID,19.4053,VALID,156,VALID,0,
2008-04-18, 01:27:00,VALID,914.633,VALID,0,VALID,100,VALID,-0.0509425,VALID,19.3888,VALID,171,VALID,0,
2008-04-18, 01:28:00,VALID,914.627,VALID,0,VALID,100,VALID,-0.0509425,VALID,19.3856,VALID,171,VALID,0,
2008-04-18, 01:29:00,VALID,914.613,VALID,0,VALID,100,VALID,-0.0339617,VALID,19.3656,VALID,170,VALID,0,
2008-04-18, 01:30:00,VALID,914.607,VALID,0,VALID,100,VALID,-0.0169808,VALID,19.3594,VALID,169,VALID,0,
2008-04-18, 01:31:00,VALID,914.572,VALID,0,VALID,100,VALID,0,VALID,19.3524,VALID,169,VALID,0,
2008-04-18, 01:32:00,VALID,914.557,VALID,0,VALID,100,VALID,-0.0169808,VALID,19.3394,VALID,161,VALID,0,
2008-04-18, 01:33:00,VALID,914.534,VALID,0,VALID,100,VALID,-0.0339617,VALID,19.317,VALID,128,VALID,0,
2008-04-18, 01:34:00,VALID,914.516,VALID,0,VALID,100,VALID,0,VALID,19.2972,VALID,123,VALID,0,
2008-04-18, 01:35:00,VALID,914.492,VALID,0,VALID,100,VALID,0,VALID,19.2813,VALID,102,VALID,0,
2008-04-18, 01:36:00,VALID,914.499,VALID,0,VALID,100,VALID,-0.0339617,VALID,19.2785,VALID,99,VALID,0,
2008-04-18, 01:37:00,VALID,914.489,VALID,0,VALID,100,VALID,-0.0339617,VALID,19.2648,VALID,94,VALID,0,
2008-04-18, 01:38:00,VALID,914.475,VALID,0,VALID,100,VALID,0,VALID,19.2583,VALID,96,VALID,0,
2008-04-18, 01:39:00,VALID,914.492,VALID,0,VALID,100,VALID,-0.0169808,VALID,19.2354,VALID,113,VALID,0,
2008-04-18, 01:40:00,VALID,914.483,VALID,0,VALID,100,VALID,-0.0169808,VALID,19.2129,VALID,111,VALID,0,
2008-04-18, 01:41:00,VALID,914.479,VALID,0,VALID,100,VALID,0,VALID,19.2136,VALID,112,VALID,0,
2008-04-18, 01:42:00,VALID,914.468,VALID,0,VALID,100,VALID,-0.0339617,VALID,19.1999,VALID,112,VALID,0,
2008-04-18, 01:43:00,VALID,914.461,VALID,0,VALID,100,VALID,-0.0339617,VALID,19.2166,VALID,117,VALID,0,
2008-04-18, 01:44:00,VALID,914.465,VALID,0,VALID,100,VALID,0,VALID,19.2199,VALID,132,VALID,0,
2008-04-18, 01:45:00,VALID,914.461,VALID,0,VALID,100,VALID,0,VALID,19.2196,VALID,141,VALID,0,
2008-04-18, 01:46:00,VALID,914.459,VALID,0,VALID,100,VALID,-0.0169808,VALID,19.2164,VALID,131,VALID,0.375908,
2008-04-18, 01:47:00,VALID,914.456,VALID,0,VALID,100,VALID,-0.0339617,VALID,19.1999,VALID,128,VALID,0.87936,
2008-04-18, 01:48:00,VALID,914.438,VALID,0,VALID,100,VALID,-0.0339617,VALID,19.2004,VALID,124,VALID,0.863991,
2008-04-18, 01:49:00,VALID,914.444,VALID,0,VALID,100,VALID,0,VALID,19.1874,VALID,125,VALID,0.466933,
2008-04-18, 01:50:00,VALID,914.433,VALID,0,VALID,100,VALID,-0.0169808,VALID,19.1842,VALID,123,VALID,0.3125,
2008-04-18, 01:51:00,VALID,914.42,VALID,0,VALID,100,VALID,-0.0169808,VALID,19.1902,VALID,132,VALID,0.382449,
2008-04-18, 01:52:00,VALID,914.406,VALID,0,VALID,100,VALID,0,VALID,19.2004,VALID,133,VALID,0,
2008-04-18, 01:53:00,VALID,914.377,VALID,0,VALID,100,VALID,0,VALID,19.2099,VALID,131,VALID,0.0566406,
2008-04-18, 01:54:00,VALID,914.378,VALID,0,VALID,100,VALID,-0.0339617,VALID,19.2333,VALID,132,VALID,0,
2008-04-18, 01:55:00,VALID,914.367,VALID,0,VALID,100,VALID,-0.0339617,VALID,19.2298,VALID,133,VALID,0,
2008-04-18, 01:56:00,VALID,914.349,VALID,0,VALID,100,VALID,-0.0339617,VALID,19.2363,VALID,136,VALID,0,
2008-04-18, 01:57:00,VALID,914.333,VALID,0,VALID,100,VALID,-0.0339617,VALID,19.2396,VALID,163,VALID,0,
2008-04-18, 01:58:00,VALID,914.326,VALID,0,VALID,100,VALID,-0.0169808,VALID,19.2496,VALID,159,VALID,0,
2008-04-18, 01:59:00,VALID,914.327,VALID,0,VALID,100,VALID,-0.0169808,VALID,19.2458,VALID,163,VALID,0.0815549,
2008-04-18, 02:00:00,VALID,914.319,VALID,0,VALID,100,VALID,0,VALID,19.2518,VALID,153,VALID,0.673874,
2008-04-18, 02:01:00,VALID,914.309,VALID,0,VALID,100,VALID,0,VALID,19.2618,VALID,142,VALID,0.255682,
2008-04-18, 02:02:00,VALID,914.287,VALID,0,VALID,100,VALID,-0.0339617,VALID,19.2655,VALID,128,VALID,0,
2008-04-18, 02:03:00,VALID,914.266,VALID,0,VALID,100,VALID,0,VALID,19.2356,VALID,130,VALID,0,
2008-04-18, 02:04:00,VALID,914.261,VALID,0,VALID,100,VALID,0,VALID,19.2388,VALID,118,VALID,0,
2008-04-18, 02:05:00,VALID,914.262,VALID,0,VALID,100,VALID,0.0169808,VALID,19.2351,VALID,125,VALID,0,
2008-04-18, 02:06:00,VALID,914.248,VALID,0,VALID,100,VALID,0.0509425,VALID,19.2379,VALID,128,VALID,0,
2008-04-18, 02:07:00,VALID,914.255,VALID,0,VALID,100,VALID,0.0169808,VALID,19.2311,VALID,128,VALID,0,
2008-04-18, 02:08:00,VALID,914.236,VALID,0,VALID,100,VALID,0.0169808,VALID,19.2416,VALID,133,VALID,0,
2008-04-18, 02:09:00,VALID,914.214,VALID,0,VALID,100,VALID,0.0509425,VALID,19.2277,VALID,150,VALID,0,
2008-04-18, 02:10:00,VALID,914.188,VALID,0,VALID,100,VALID,0.0339617,VALID,19.2376,VALID,154,VALID,0,
2008-04-18, 02:11:00,VALID,914.155,VALID,0,VALID,100,VALID,0.0339617,VALID,19.2471,VALID,141,VALID,0,
2008-04-18, 02:12:00,VALID,914.131,VALID,0,VALID,100,VALID,0.0169808,VALID,19.2506,VALID,144,VALID,0,
2008-04-18, 02:13:00,VALID,914.109,VALID,0,VALID,100,VALID,0.0169808,VALID,19.2513,VALID,137,VALID,0,
2008-04-18, 02:14:00,VALID,914.106,VALID,0,VALID,100,VALID,0.0339617,VALID,19.2309,VALID,136,VALID,0,
2008-04-18, 02:15:00,VALID,914.083,VALID,0,VALID,100,VALID,0.0509425,VALID,19.2344,VALID,136,VALID,0,
2008-04-18, 02:16:00,VALID,914.069,VALID,0,VALID,100,VALID,0.0339617,VALID,19.2179,VALID,119,VALID,0,
2008-04-18, 02:17:00,VALID,914.065,VALID,0,VALID,100,VALID,0.0339617,VALID,19.2149,VALID,133,VALID,0,
2008-04-18, 02:18:00,VALID,914.054,VALID,0,VALID,100,VALID,0.0679233,VALID,19.2119,VALID,133,VALID,0,
2008-04-18, 02:19:00,VALID,914.062,VALID,0,VALID,100,VALID,0.0339617,VALID,19.2089,VALID,132,VALID,0,
2008-04-18, 02:20:00,VALID,914.045,VALID,0,VALID,100,VALID,-0.0169808,VALID,19.1967,VALID,132,VALID,0,
2008-04-18, 02:21:00,VALID,914.031,VALID,0,VALID,100,VALID,-0.0679233,VALID,19.1877,VALID,113,VALID,0,
2008-04-18, 02:22:00,VALID,914.03,VALID,0,VALID,100,VALID,-0.101885,VALID,19.1684,VALID,110,VALID,0,
2008-04-18, 02:23:00,VALID,914.026,VALID,0,VALID,100,VALID,-0.0679233,VALID,19.149,VALID,110,VALID,0,
2008-04-18, 02:24:00,VALID,914.001,VALID,0,VALID,100,VALID,-0.0849042,VALID,19.1423,VALID,110,VALID,0,
2008-04-18, 02:25:00,VALID,913.995,VALID,0,VALID,100,VALID,-0.0849042,VALID,19.133,VALID,110,VALID,0,
2008-04-18, 02:26:00,VALID,913.986,VALID,0,VALID,100,VALID,-0.0849042,VALID,19.1068,VALID,110,VALID,0,
2008-04-18, 02:27:00,VALID,913.978,VALID,0,VALID,100,VALID,-0.101885,VALID,19.0774,VALID,108,VALID,0,
2008-04-18, 02:28:00,VALID,913.977,VALID,0,VALID,100,VALID,-0.0849042,VALID,19.0611,VALID,79,VALID,0,
2008-04-18, 02:29:00,VALID,913.968,VALID,0,VALID,100,VALID,-0.0849042,VALID,19.0419,VALID,79,VALID,0,
2008-04-18, 02:30:00,VALID,913.956,VALID,0,VALID,100,VALID,-0.0849042,VALID,19.0357,VALID,79,VALID,0,
2008-04-18, 02:31:00,VALID,913.941,VALID,0,VALID,100,VALID,-0.101885,VALID,19.0287,VALID,79,VALID,0,
2008-04-18, 02:32:00,VALID,913.927,VALID,0,VALID,100,VALID,-0.101885,VALID,19.0357,VALID,88,VALID,0,
2008-04-18, 02:33:00,VALID,913.925,VALID,0,VALID,100,VALID,-0.101885,VALID,19.0354,VALID,92,VALID,0,
2008-04-18, 02:34:00,VALID,913.908,VALID,0,VALID,100,VALID,-0.101885,VALID,19.0389,VALID,92,VALID,0,
2008-04-18, 02:35:00,VALID,913.896,VALID,0,VALID,100,VALID,0,VALID,19.0377,VALID,92,VALID,0,
2008-04-18, 02:36:00,VALID,913.875,VALID,0,VALID,100,VALID,0,VALID,19.04,VALID,92,VALID,0,
2008-04-18, 02:37:00,VALID,913.855,VALID,0,VALID,100,VALID,0.0339617,VALID,19.033,VALID,150,VALID,0,
2008-04-18, 02:38:00,VALID,913.83,VALID,0,VALID,100,VALID,0.0169808,VALID,19.0437,VALID,158,VALID,0,
2008-04-18, 02:39:00,VALID,913.801,VALID,0,VALID,100,VALID,0,VALID,19.05,VALID,155,VALID,0,
2008-04-18, 02:40:00,VALID,913.764,VALID,0,VALID,100,VALID,0,VALID,19.0822,VALID,122,VALID,0,
2008-04-18, 02:41:00,VALID,913.739,VALID,0,VALID,100,VALID,0,VALID,19.0857,VALID,120,VALID,0.056686,
2008-04-18, 02:42:00,VALID,913.696,VALID,0,VALID,100,VALID,0,VALID,19.1121,VALID,129,VALID,0.521181,
2008-04-18, 02:43:00,VALID,913.671,VALID,0,VALID,100,VALID,0.0169808,VALID,19.1248,VALID,123,VALID,0,
2008-04-18, 02:44:00,VALID,913.645,VALID,0,VALID,100,VALID,0,VALID,19.1376,VALID,136,VALID,0.30069,
2008-04-18, 02:45:00,VALID,913.623,VALID,0,VALID,100,VALID,-0.0169808,VALID,19.157,VALID,142,VALID,0.853795,
2008-04-18, 02:46:00,VALID,913.595,VALID,0,VALID,100,VALID,0.0169808,VALID,19.1672,VALID,148,VALID,0.714489,
2008-04-18, 02:47:00,VALID,913.58,VALID,0,VALID,100,VALID,0,VALID,19.1765,VALID,131,VALID,0.799665,
2008-04-18, 02:48:00,VALID,913.566,VALID,0,VALID,100,VALID,0,VALID,19.1865,VALID,135,VALID,1.07685,
2008-04-18, 02:49:00,VALID,913.556,VALID,0,VALID,100,VALID,0,VALID,19.1802,VALID,140,VALID,0.96147,
2008-04-18, 02:50:00,VALID,913.553,VALID,0,VALID,100,VALID,0,VALID,19.1832,VALID,142,VALID,1.1026,
2008-04-18, 02:51:00,VALID,913.551,VALID,0,VALID,100,VALID,0.0169808,VALID,19.18,VALID,147,VALID,1.25038,
2008-04-18, 02:52:00,VALID,913.555,VALID,0,VALID,100,VALID,0.0339617,VALID,19.1725,VALID,140,VALID,1.06751,
2008-04-18, 02:53:00,VALID,913.531,VALID,0,VALID,100,VALID,0.0169808,VALID,19.183,VALID,139,VALID,0.459635,
2008-04-18, 02:54:00,VALID,913.534,VALID,0,VALID,100,VALID,-0.0339617,VALID,19.1802,VALID,124,VALID,0.760617,
2008-04-18, 02:55:00,VALID,913.52,VALID,0,VALID,100,VALID,0,VALID,19.1862,VALID,143,VALID,1.20503,
2008-04-18, 02:56:00,VALID,913.508,VALID,0,VALID,100,VALID,0.0169808,VALID,19.1862,VALID,144,VALID,0.549107,
2008-04-18, 02:57:00,VALID,913.492,VALID,0,VALID,100,VALID,-0.0169808,VALID,19.1897,VALID,142,VALID,1.50953,
2008-04-18, 02:58:00,VALID,913.478,VALID,0,VALID,100,VALID,0.0169808,VALID,19.18,VALID,163,VALID,0.983173,
2008-04-18, 02:59:00,VALID,913.461,VALID,0,VALID,100,VALID,0.0169808,VALID,19.183,VALID,155,VALID,1.47008,
2008-04-18, 03:00:00,VALID,913.46,VALID,0,VALID,100,VALID,-0.0169808,VALID,19.1899,VALID,139,VALID,1.12556,
2008-04-18, 03:01:00,VALID,913.434,VALID,0,VALID,100,VALID,0,VALID,19.1767,VALID,142,VALID,1.16827,
2008-04-18, 03:02:00,VALID,913.419,VALID,0,VALID,100,VALID,0,VALID,19.18,VALID,126,VALID,0.914621,
2008-04-18, 03:03:00,VALID,913.385,VALID,0,VALID,100,VALID,0.0169808,VALID,19.1792,VALID,141,VALID,0.79652,
2008-04-18, 03:04:00,VALID,913.361,VALID,0,VALID,100,VALID,0,VALID,19.2057,VALID,123,VALID,1.13758,
2008-04-18, 03:05:00,VALID,913.352,VALID,0,VALID,100,VALID,0,VALID,19.2087,VALID,144,VALID,0.28016,
2008-04-18, 03:06:00,VALID,913.331,VALID,0,VALID,100,VALID,0.0339617,VALID,19.2314,VALID,153,VALID,0,
2008-04-18, 03:07:00,VALID,913.311,VALID,0,VALID,100,VALID,-0.0169808,VALID,19.2379,VALID,128,VALID,0,
2008-04-18, 03:08:00,VALID,913.289,VALID,0,VALID,100,VALID,0,VALID,19.2548,VALID,146,VALID,0.798735,
2008-04-18, 03:09:00,VALID,913.268,VALID,0,VALID,100,VALID,0.0169808,VALID,19.2411,VALID,158,VALID,1.43102,
2008-04-18, 03:10:00,VALID,913.248,VALID,0,VALID,100,VALID,0,VALID,19.2479,VALID,155,VALID,1.10227,
2008-04-18, 03:11:00,VALID,913.237,VALID,0,VALID,100,VALID,0.0169808,VALID,19.2316,VALID,155,VALID,1.39653,
2008-04-18, 03:12:00,VALID,913.23,VALID,0,VALID,100,VALID,0.0169808,VALID,19.2286,VALID,161,VALID,1.74771,
2008-04-18, 03:13:00,VALID,913.224,VALID,0,VALID,100,VALID,0,VALID,19.2184,VALID,163,VALID,0.932617,
2008-04-18, 03:14:00,VALID,913.221,VALID,0,VALID,100,VALID,-0.0169808,VALID,19.2286,VALID,158,VALID,1.53239,
2008-04-18, 03:15:00,VALID,913.218,VALID,0,VALID,100,VALID,-0.0169808,VALID,19.2251,VALID,179,VALID,0.598214,
2008-04-18, 03:16:00,VALID,913.218,VALID,0,VALID,100,VALID,0,VALID,19.2217,VALID,155,VALID,1.18532,
2008-04-18, 03:17:00,VALID,913.227,VALID,0,VALID,100,VALID,0.0339617,VALID,19.2284,VALID,150,VALID,0.395894,
2008-04-18, 03:18:00,VALID,913.242,VALID,0,VALID,100,VALID,0,VALID,19.2316,VALID,182,VALID,0.00962936,
2008-04-18, 03:19:00,VALID,913.222,VALID,0,VALID,100,VALID,-0.0339617,VALID,19.2381,VALID,163,VALID,1.13872,
2008-04-18, 03:20:00,VALID,913.233,VALID,0,VALID,100,VALID,0,VALID,19.2418,VALID,165,VALID,1.57955,
2008-04-18, 03:21:00,VALID,913.214,VALID,0,VALID,100,VALID,0,VALID,19.2416,VALID,146,VALID,1.45789,
2008-04-18, 03:22:00,VALID,913.22,VALID,0,VALID,100,VALID,0.0339617,VALID,19.2451,VALID,165,VALID,1.61644,
2008-04-18, 03:23:00,VALID,913.207,VALID,0,VALID,100,VALID,0,VALID,19.2251,VALID,161,VALID,1.39025,
2008-04-18, 03:24:00,VALID,913.21,VALID,0,VALID,100,VALID,0.0169808,VALID,19.2351,VALID,154,VALID,1.08611,
2008-04-18, 03:25:00,VALID,913.203,VALID,0,VALID,100,VALID,0,VALID,19.2254,VALID,169,VALID,1.11665,
2008-04-18, 03:26:00,VALID,913.204,VALID,0,VALID,100,VALID,0,VALID,19.2124,VALID,147,VALID,0.899926,
2008-04-18, 03:27:00,VALID,913.204,VALID,0,VALID,100,VALID,-0.0169808,VALID,19.2027,VALID,152,VALID,1.22749,
2008-04-18, 03:28:00,VALID,913.234,VALID,0,VALID,100,VALID,0.0169808,VALID,19.2062,VALID,166,VALID,1.36174,
2008-04-18, 03:29:00,VALID,913.226,VALID,0,VALID,100,VALID,0.0169808,VALID,19.1997,VALID,154,VALID,1.73075,
2008-04-18, 03:30:00,VALID,913.224,VALID,0,VALID,100,VALID,0,VALID,19.1964,VALID,151,VALID,1.40879,
2008-04-18, 03:31:00,VALID,913.233,VALID,0,VALID,100,VALID,0,VALID,19.1792,VALID,165,VALID,1.64658,
2008-04-18, 03:32:00,VALID,913.244,VALID,0,VALID,100,VALID,0.0339617,VALID,19.1728,VALID,161,VALID,2.00038,
2008-04-18, 03:33:00,VALID,913.234,VALID,0,VALID,100,VALID,0,VALID,19.1735,VALID,164,VALID,1.66957,
2008-04-18, 03:34:00,VALID,913.242,VALID,0,VALID,100,VALID,-0.0169808,VALID,19.1637,VALID,152,VALID,1.71421,
2008-04-18, 03:35:00,VALID,913.26,VALID,0,VALID,100,VALID,0,VALID,19.147,VALID,148,VALID,0.578506,
2008-04-18, 03:36:00,VALID,913.258,VALID,0,VALID,100,VALID,0,VALID,19.1403,VALID,156,VALID,1.00039,
2008-04-18, 03:37:00,VALID,913.263,VALID,0,VALID,100,VALID,0.0339617,VALID,19.1341,VALID,168,VALID,1.68457,
2008-04-18, 03:38:00,VALID,913.272,VALID,0,VALID,100,VALID,0.0169808,VALID,19.1278,VALID,163,VALID,1.66602,
2008-04-18, 03:39:00,VALID,913.266,VALID,0,VALID,100,VALID,0.0169808,VALID,19.1183,VALID,168,VALID,1.57631,
2008-04-18, 03:40:00,VALID,913.272,VALID,0,VALID,100,VALID,0.0509425,VALID,19.0919,VALID,171,VALID,0.998326,
2008-04-18, 03:41:00,VALID,913.283,VALID,0,VALID,100,VALID,0,VALID,19.1026,VALID,175,VALID,0.896391,
2008-04-18, 03:42:00,VALID,913.288,VALID,0,VALID,100,VALID,0,VALID,19.0859,VALID,185,VALID,1.39453,
2008-04-18, 03:43:00,VALID,913.29,VALID,0,VALID,100,VALID,0.0169808,VALID,19.0854,VALID,155,VALID,0.334335,
2008-04-18, 03:44:00,VALID,913.303,VALID,0,VALID,100,VALID,0,VALID,19.0794,VALID,168,VALID,0.0987723,
2008-04-18, 03:45:00,VALID,913.317,VALID,0,VALID,100,VALID,0.0169808,VALID,19.0861,VALID,173,VALID,0,
2008-04-18, 03:46:00,VALID,913.308,VALID,0,VALID,100,VALID,0.0509425,VALID,19.0729,VALID,181,VALID,1.07369,
2008-04-18, 03:47:00,VALID,913.308,VALID,0,VALID,100,VALID,0.0339617,VALID,19.0495,VALID,176,VALID,0.682927,
2008-04-18, 03:48:00,VALID,913.295,VALID,0,VALID,100,VALID,0,VALID,19.0535,VALID,171,VALID,1.38778,
2008-04-18, 03:49:00,VALID,913.29,VALID,0,VALID,100,VALID,0.0169808,VALID,19.0462,VALID,160,VALID,1.14711,
2008-04-18, 03:50:00,VALID,913.282,VALID,0,VALID,100,VALID,0,VALID,19.0535,VALID,178,VALID,1.19978,
2008-04-18, 03:51:00,VALID,913.267,VALID,0,VALID,100,VALID,0.0169808,VALID,19.0235,VALID,172,VALID,1.02628,